Wind_Speed
3 2 3 3 2 2 6 8 10 8 8 17 20 15 9 10 12 19 21 22 20 21 18 19 22 25 25 29 35 36 41 42 45 44 42 33 28 26 26 27 27 30 34 37
3 6 1 3 2 7 11 10 6 4 10 15 15 13 11 10 14 19 22 23 22 20 18 20 23 24 25 30 35 39 41 42 45 46 37 36 37 37 33 31 28 27 30 34
1 4 3 4 5 5 5 6 1 5 7 8 11 15 17 16 16 15 26 23 22 19 20 22 22 24 27 31 35 40 39 42 46 41 42 44 45 46 44 41 37 31 29 30
3 6 6 6 7 10 10 6 4 5 7 8 12 8 14 18 14 14 19 26 23 19 20 21 24 25 29 32 37 39 41 41 48 43 43 46 50 55 54 50 45 41 38 37
5 6 6 10 9 8 9 9 10 11 9 10 11 6 5 6 9 10 19 24 19 18 21 27 23 25 31 37 38 40 38 45 48 42 43 48 53 58 63 59 56 51 46 42
11 7 8 7 6 8 9 9 9 11 10 5 3 4 7 7 10 14 20 21 21 22 23 21 23 30 37 37 38 39 43 45 45 44 47 52 59 63 66 60 59 56 54 50
6 6 13 13 12 10 12 7 2 2 1 6 5 7 6 8 9 14 17 19 20 20 20 24 27 33 34 35 39 42 42 44 47 50 53 57 60 66 66 63 62 62 60 59
5 4 6 9 14 10 9 10 4 5 2 5 9 4 3 7 8 12 12 13 18 22 24 27 31 38 36 38 40 42 45 48 54 56 56 60 66 66 64 65 67 68 67 66
8 6 5 9 9 7 7 12 10 6 2 2 4 6 8 11 10 11 12 17 20 24 25 30 34 34 36 39 43 46 52 53 57 57 62 66 65 63 66 68 69 69 68 66
15 7 7 8 8 9 10 8 6 6 3 4 4 6 11 11 11 12 15 17 22 24 26 32 35 34 36 39 45 51 52 56 57 63 65 64 63 65 66 67 67 65 60 53
20 15 11 15 15 16 11 15 10 9 7 7 2 6 6 9 11 14 17 19 24 26 30 31 31 33 39 42 47 51 53 57 61 63 61 61 62 62 63 61 53 47 45 41
26 18 15 18 15 16 12 11 21 16 8 11 9 18 22 19 13 16 17 23 26 27 27 27 30 36 39 44 49 51 54 58 60 59 59 61 59 58 52 45 33 30 30 28
28 15 10 3 11 19 15 11 11 15 17 19 9 14 17 17 16 19 22 23 25 23 24 27 33 38 43 49 50 54 58 60 59 59 60 57 53 47 32 28 27 28 26 24
20 19 16 14 8 9 20 20 13 9 8 14 20 22 21 22 23 22 19 19 19 22 25 29 36 43 46 48 53 58 60 59 60 60 58 50 43 28 22 25 25 27 23 23
21 18 17 13 12 15 17 19 16 14 14 15 16 17 19 19 17 15 15 16 19 22 27 34 40 44 48 52 56 58 57 59 61 58 49 38 28 24 26 25 24 25 16 17
22 17 15 12 14 15 17 22 23 23 23 20 16 18 11 9 13 13 14 15 19 23 31 39 42 45 50 55 58 56 58 60 57 52 37 24 20 23 22 21 19 15 15 20
25 24 17 10 9 6 8 10 15 18 17 19 16 14 11 11 12 13 14 17 22 32 38 40 42 47 53 56 53 55 57 53 49 35 19 17 18 24 23 24 14 15 19 16
28 26 17 10 11 2 6 10 6 11 10 9 10 9 10 11 11 12 16 22 32 32 36 39 44 49 51 51 51 53 50 44 33 20 19 18 20 16 21 19 16 15 15 16
29 29 13 9 12 5 9 11 15 11 9 10 9 10 10 11 13 18 26 23 28 31 37 41 46 49 48 48 49 48 40 34 23 17 18 18 16 14 20 19 21 19 21 19
22 24 20 17 6 5 3 6 9 11 11 12 9 10 11 14 17 20 23 26 31 33 37 41 44 46 45 45 46 43 34 32 20 18 14 15 15 15 13 17 20 22 16 19
15 20 18 12 6 9 14 11 12 10 10 11 13 13 13 13 15 22 22 29 30 33 36 40 41 43 42 45 43 38 31 29 16 16 13 10 15 13 14 16 23 18 18 19
12 10 13 17 16 12 14 15 16 14 10 7 9 11 16 18 16 20 25 27 28 32 35 38 40 39 42 42 38 33 30 26 14 9 11 10 13 15 14 17 18 18 15 16
17 12 7 10 12 7 6 10 10 13 15 12 7 9 10 13 18 22 25 24 27 31 32 36 36 38 41 38 33 31 27 22 12 8 11 10 12 13 15 19 16 14 12 13
15 12 18 15 14 8 10 9 7 7 6 5 4 7 10 14 20 22 21 24 25 26 30 32 34 37 37 33 30 27 23 17 12 9 10 9 13 13 14 15 15 16 14 16
17 17 16 16 14 19 15 11 9 4 2 5 7 6 12 19 19 19 21 20 23 25 27 30 34 37 34 30 25 21 17 14 12 13 14 15 17 18 19 18 18 22 22 28
11 12 19 18 18 17 10 11 6 3 6 6 5 10 16 15 16 19 19 18 21 24 25 29 32 34 30 26 21 17 17 16 14 15 19 24 31 33 31 30 32 31 28 23
Wind_Direction
301 232 157 102 95 231 296 293 295 305 251 227 227 236 272 283 256 260 275 275 278 279 286 294 301 308 321 334 336 337 337 335 336 335 330 327 321 308 296 291 287 284 283 279
222 184 243 183 276 294 278 269 265 245 206 208 222 229 258 257 256 269 274 266 267 270 278 293 300 314 327 329 329 331 332 336 340 333 333 333 331 326 314 304 296 287 284 283
246 269 257 192 241 217 225 248 155 205 198 218 244 252 256 260 279 275 246 253 256 260 277 291 308 315 318 319 321 323 328 335 335 334 335 331 327 323 319 312 306 298 287 281
234 195 195 198 211 224 241 244 279 291 275 281 248 276 260 278 284 279 241 238 245 259 277 292 303 311 314 312 316 324 328 329 332 331 328 324 323 324 321 315 310 305 300 292
187 175 199 220 241 240 249 257 261 290 296 293 271 275 281 297 292 256 229 224 229 253 280 292 301 307 307 309 317 321 320 324 330 322 316 317 318 319 318 314 310 305 300 294
216 207 217 242 265 246 245 281 269 275 283 292 253 268 266 261 285 246 216 218 245 270 281 293 301 305 309 308 314 315 319 322 322 314 313 314 314 312 312 308 305 302 299 296
240 244 245 259 265 260 246 227 300 335 358 223 285 302 264 231 231 231 231 246 268 275 288 296 299 304 307 306 307 314 318 316 315 311 311 311 311 310 309 307 304 302 300 297
247 264 233 245 247 260 218 225 200 196 211 275 313 256 245 225 224 234 262 279 289 284 292 287 301 310 305 304 310 312 313 311 313 311 310 310 309 309 307 305 303 302 299 296
206 226 273 208 238 201 200 220 228 214 210 296 263 259 258 226 237 260 278 281 280 271 277 293 304 306 307 306 308 311 312 310 311 309 309 310 311 309 307 305 303 301 298 296
230 208 183 186 210 239 257 242 181 185 150 242 261 256 241 237 261 259 277 293 273 280 288 300 309 301 305 306 311 312 310 309 309 309 311 312 310 309 308 306 304 302 301 298
229 220 211 211 227 240 213 206 214 216 208 173 210 247 281 270 281 284 297 272 271 280 292 301 302 301 307 309 311 309 309 310 312 313 313 312 312 312 311 310 311 309 307 303
219 221 214 232 254 222 236 269 233 223 222 224 244 263 279 280 277 284 275 256 267 272 288 296 300 307 307 309 309 312 315 318 318 317 316 316 316 316 317 318 322 329 325 320
219 209 204 219 239 242 245 236 230 239 252 242 222 250 290 292 276 281 267 253 261 284 288 296 304 304 308 311 315 318 321 321 321 320 319 319 319 321 328 333 332 338 334 335
229 225 222 226 239 231 210 204 212 234 256 263 260 278 291 291 288 282 251 260 275 281 292 302 307 309 312 318 322 322 323 323 323 322 321 323 326 330 330 329 335 334 332 334
226 224 220 229 245 246 233 225 233 254 267 281 293 294 291 292 270 252 252 271 284 296 305 308 311 316 321 323 324 324 324 326 324 324 325 325 329 331 335 321 332 330 342 348
224 223 226 221 239 253 261 254 255 265 277 277 290 298 274 232 228 243 262 280 289 302 310 315 318 322 324 326 326 327 329 328 328 328 327 329 347 344 336 338 325 349 360 351
217 218 208 202 220 231 274 253 252 257 269 272 279 278 237 221 240 257 272 287 309 316 315 318 321 324 326 327 329 330 331 333 337 344 357 357 344 341 335 343 338 323 337 346
225 216 208 180 184 186 234 220 239 289 264 241 242 235 220 245 250 274 293 305 313 314 317 320 324 325 326 329 330 332 335 340 346 4 355 346 349 349 1 22 23 26 8 10
223 219 187 176 189 229 209 243 251 264 188 175 218 241 245 254 282 300 306 314 320 322 323 323 324 328 330 330 331 335 340 344 349 350 357 356 353 3 7 12 40 32 29 22
202 209 202 173 167 186 204 231 208 228 214 223 229 230 246 268 289 307 323 333 329 323 322 325 329 331 330 331 335 340 343 346 342 344 331 357 2 9 10 27 17 29 15 16
206 200 205 210 238 234 215 221 261 248 257 255 254 263 278 280 308 322 325 332 326 321 325 330 332 331 332 336 339 344 349 347 343 350 6 9 359 4 15 31 29 28 27 29
223 215 222 228 224 241 228 226 240 253 242 267 280 274 298 310 319 325 333 328 321 322 326 331 333 334 337 340 342 346 349 350 336 354 5 1 357 0 9 27 22 21 23 25
212 205 212 209 223 218 221 238 248 246 257 275 273 291 310 306 319 328 328 322 320 323 328 334 336 338 341 343 346 349 351 354 347 28 10 18 10 8 29 21 28 31 35 56
209 221 235 225 218 215 214 224 213 218 228 267 279 302 325 319 322 325 329 323 327 330 336 336 339 342 344 349 351 354 358 7 17 41 43 32 46 40 40 38 51 53 55 73
247 238 227 232 223 198 188 210 225 219 235 306 324 311 320 320 323 328 333 325 332 336 338 339 342 345 351 360 2 3 14 37 52 70 78 69 60 51 53 56 57 60 67 68
226 229 211 193 195 202 215 225 214 269 319 310 280 310 320 330 337 335 328 331 336 337 340 342 346 352 9 16 18 23 39 57 70 74 72 72 72 67 67 70 71 69 65 68
Height
3151 3151 3152 3154 3154 3155 3156 3156 3156 3155 3154 3156 3157 3159 3160 3160 3159 3158 3158 3159 3159 3157 3157 3157 3156 3154 3152 3150 3146 3143 3140 3137 3132 3127 3123 3119 3116 3113 3110 3107 3104 3100 3096 3092
3151 3150 3151 3152 3154 3155 3154 3155 3155 3154 3154 3156 3156 3158 3157 3157 3157 3156 3155 3155 3155 3154 3154 3154 3152 3150 3149 3146 3144 3140 3137 3133 3127 3123 3117 3113 3108 3104 3100 3097 3096 3093 3089 3085
3149 3151 3150 3151 3153 3154 3154 3154 3154 3154 3154 3154 3154 3155 3155 3155 3154 3153 3153 3154 3153 3152 3152 3150 3149 3148 3146 3143 3140 3137 3133 3128 3123 3117 3112 3106 3101 3096 3091 3087 3084 3083 3081 3078
3148 3149 3150 3151 3152 3153 3153 3154 3154 3154 3154 3154 3154 3151 3150 3149 3148 3149 3149 3150 3151 3150 3149 3149 3147 3145 3142 3139 3137 3133 3128 3123 3118 3111 3106 3100 3094 3088 3083 3078 3073 3070 3068 3065
3148 3148 3149 3150 3151 3151 3152 3152 3152 3151 3151 3151 3150 3149 3144 3144 3145 3146 3147 3148 3149 3149 3148 3148 3145 3142 3139 3135 3132 3128 3123 3118 3111 3105 3099 3093 3087 3081 3074 3069 3063 3059 3056 3053
3145 3146 3147 3148 3149 3149 3150 3150 3150 3149 3149 3148 3147 3147 3144 3143 3144 3144 3146 3147 3147 3147 3146 3144 3142 3139 3137 3133 3128 3123 3117 3111 3105 3099 3093 3087 3080 3072 3064 3057 3050 3044 3039 3037
3143 3143 3144 3145 3146 3147 3147 3149 3149 3149 3150 3148 3145 3144 3141 3141 3142 3145 3146 3147 3146 3144 3143 3141 3138 3137 3132 3128 3124 3118 3112 3105 3099 3093 3087 3080 3071 3062 3051 3043 3035 3029 3023 3018
3139 3141 3140 3141 3143 3144 3144 3146 3147 3154 3153 3146 3143 3140 3140 3141 3142 3144 3145 3145 3144 3141 3140 3139 3136 3132 3127 3122 3117 3111 3105 3098 3092 3085 3077 3069 3060 3049 3039 3030 3020 3012 3005 2998
3136 3137 3137 3138 3140 3142 3142 3143 3144 3144 3145 3145 3141 3140 3139 3139 3141 3142 3142 3141 3140 3138 3137 3135 3131 3126 3122 3116 3111 3104 3097 3090 3083 3075 3066 3056 3046 3035 3025 3015 3005 2995 2986 2979
3133 3135 3135 3137 3139 3139 3139 3141 3142 3141 3145 3145 3138 3137 3135 3136 3137 3138 3138 3137 3136 3135 3133 3129 3125 3122 3117 3111 3104 3097 3089 3081 3073 3063 3053 3042 3031 3021 3011 2999 2987 2976 2967 2960
3129 3131 3134 3135 3135 3135 3136 3136 3138 3138 3138 3138 3142 3133 3132 3134 3135 3135 3135 3135 3133 3131 3129 3126 3122 3117 3111 3105 3098 3090 3081 3072 3062 3051 3039 3029 3019 3008 2995 2982 2971 2962 2954 2947
3125 3126 3127 3130 3131 3132 3132 3133 3133 3133 3134 3132 3130 3128 3130 3131 3132 3132 3131 3129 3128 3127 3126 3122 3117 3112 3105 3098 3091 3082 3072 3062 3050 3038 3027 3017 3005 2994 2982 2972 2963 2955 2948 2943
3120 3121 3123 3127 3130 3129 3129 3129 3129 3129 3129 3126 3128 3127 3127 3128 3127 3127 3125 3124 3124 3123 3121 3117 3112 3106 3099 3091 3082 3073 3061 3050 3039 3027 3016 3005 2994 2983 2974 2967 2961 2954 2948 2941
3116 3116 3118 3121 3122 3123 3124 3125 3125 3125 3125 3124 3123 3123 3124 3124 3123 3121 3121 3121 3121 3120 3116 3112 3106 3099 3091 3082 3073 3062 3051 3039 3028 3016 3004 2994 2984 2976 2971 2965 2958 2953 2947 2941
3112 3113 3115 3117 3118 3119 3120 3121 3121 3120 3121 3120 3120 3118 3119 3119 3118 3118 3119 3119 3117 3115 3111 3107 3100 3091 3083 3074 3065 3054 3042 3029 3016 3004 2994 2986 2980 2974 2968 2963 2958 2951 2945 2941
3107 3108 3111 3113 3114 3114 3115 3116 3116 3116 3115 3114 3114 3114 3114 3114 3115 3115 3116 3116 3114 3111 3107 3100 3092 3084 3076 3066 3055 3043 3032 3020 3006 2994 2985 2981 2977 2973 2968 2962 2956 2951 2944 2941
3103 3104 3106 3109 3110 3111 3113 3110 3110 3110 3109 3110 3110 3112 3112 3112 3112 3113 3113 3112 3109 3105 3099 3092 3085 3078 3069 3058 3047 3036 3025 3013 3001 2990 2984 2982 2978 2973 2967 2958 2953 2950 2946 2939
3096 3099 3102 3103 3106 3110 3108 3107 3107 3108 3106 3106 3107 3109 3110 3110 3110 3110 3110 3108 3105 3099 3093 3086 3080 3072 3063 3052 3042 3032 3021 3010 3000 2993 2989 2984 2979 2973 2967 2961 2956 2951 2947 2942
3092 3093 3097 3100 3102 3105 3106 3105 3104 3106 3106 3106 3106 3108 3109 3108 3107 3108 3107 3104 3099 3093 3087 3082 3074 3065 3056 3047 3038 3028 3017 3008 3001 2995 2990 2984 2979 2975 2970 2965 2959 2954 2950 2946
3086 3089 3093 3095 3096 3099 3101 3101 3101 3102 3103 3104 3105 3106 3107 3107 3106 3105 3102 3097 3093 3088 3083 3076 3068 3060 3052 3043 3034 3024 3015 3007 3001 2996 2990 2985 2980 2977 2972 2968 2963 2958 2953 2949
3083 3085 3087 3091 3092 3094 3099 3100 3100 3102 3105 3102 3103 3105 3105 3105 3105 3101 3097 3093 3088 3084 3078 3072 3065 3057 3047 3038 3029 3020 3012 3006 2999 2995 2990 2986 2983 2978 2974 2970 2966 2962 2958 2954
3080 3082 3083 3088 3090 3091 3092 3095 3097 3098 3098 3099 3100 3101 3101 3101 3099 3097 3093 3090 3085 3080 3075 3069 3061 3053 3044 3035 3026 3018 3011 3004 2998 2994 2992 2988 2986 2981 2977 2974 2970 2967 2962 2959
3076 3076 3081 3083 3081 3084 3086 3089 3092 3094 3095 3097 3098 3100 3100 3099 3097 3094 3090 3086 3081 3077 3072 3065 3058 3050 3042 3032 3023 3015 3009 3003 2998 2995 2993 2991 2989 2984 2981 2977 2973 2970 2967 2964
3071 3074 3075 3078 3080 3081 3084 3088 3090 3092 3094 3095 3097 3098 3097 3095 3092 3090 3087 3083 3079 3074 3069 3062 3056 3048 3040 3030 3021 3014 3010 3004 3000 2997 2995 2993 2991 2987 2984 2981 2978 2975 2972 2970
3068 3069 3070 3072 3075 3078 3082 3085 3089 3090 3092 3093 3093 3093 3093 3091 3089 3087 3084 3080 3076 3072 3067 3061 3054 3046 3038 3029 3022 3016 3012 3007 3004 3001 2998 2997 2995 2992 2989 2987 2985 2981 2978 2977
3062 3063 3065 3069 3073 3076 3080 3083 3086 3088 3088 3088 3090 3091 3090 3089 3087 3084 3081 3077 3074 3070 3066 3059 3053 3045 3037 3030 3024 3020 3015 3012 3009 3006 3004 3003 3002 3000 2997 2995 2992 2989 2987 2987